Вернуться в каталог

FENGYUN 1C DEB

АктивенPO
NORAD 36645·DEBRIS·🇨🇳 China

Запущен May 10, 1999 с Taiyuan Satellite Launch Center

Loading…

Ближайшие Пролёты (ближайшие 24 часа)

TLE

СвежийSource: Space-Track

Эпоха: Sep 13, 2026, 06:30 UTC

1 36645U 99025DXP 26256.27111426  .00000828  00000-0  88027-3 0  9990
2 36645  98.5140  11.7368 0291780  43.5244 318.8530 13.59516171612767

Отслеживайте FENGYUN 1C DEB в реальном времени с AllMySat

Download on the App Store